Zurück zum Katalog

ATLAS 28E DEB

AktivPO
NORAD 20564·DEBRIS·🇺🇸 United States

Gestartet Apr 11, 1990 von Vandenberg Space Force Base

Loading…

Nächste Überflüge (nächste 24 Stunden)

TLE

AktuellSource: Space-Track

Epoche: Sep 14, 2026, 07:27 UTC

1 20564U 90031E   26257.31052407  .00001167  00000-0  12069-3 0  9990
2 20564  89.8454 262.2007 0049318 297.6227  61.9998 14.88634100385335

Verfolge ATLAS 28E DEB in Echtzeit mit AllMySat

Download on the App Store